Portada
METAR-TAF:

METAR-TAF

Aeropuertos :

Kinloss, Escocia

latitud: 57-39N, longitud: 003-34W, altitud: 7 m

Observación

El informe se hizo hace 1 hora y 8 minutos, a las 10:50 UTC
Viento 18 kt del oeste-noroeste
Temperatura 13°C
Humedad 67%
Presión 1012 hPa
Visibilidad 10 km o más

METAR: EGQK 231050Z AUTO 30018KT 9999 NCD 13/07 Q1012

Hora: 12:58 (11:58 UTC)


TAF: falta

Observaciones y pronósticos meteorológicos de más de 4000 aeropuertos (mensajes METAR y TAF).

Los puntos amarillos y rojos representan las estaciones disponibles.

Ponga el ratón en el punto deseado para ver el nombre de la estación.

Haga clic para ver las observaciones y los pronósticos meteorológicos.

Para cambiar el mapa : haga clic en los botones verdes con una cruz de color negro para hacer un zoom, en el botón verde con un guión para alejar o en las flechas verdes para mapas adyacentes.


METAR-TAF: